contact:dominique.lefevre@mio.osupytheas.fr, maurice.libes@osupytheas.fr, didier.mallarino@osupytheas.fr
Project:EMSO http://www.emso-fr.org/EMSO-France
Depth: 2436.0 m
Title:EMSO Ligure Ouest : Data MII capteur MICROCAT
DateTime_Computer,Latitude,Longitude,Temperature,Conductivity,Pressure,DateTime_Instrument
DateTime_Computer,Latitude,Longitude,degC,S m-1,dbar,DateTime_Instrument
2021-07-02T00:01:21Z,42.805,6.029,13.3024,4.60074,2470.404,2021-7-02T02:02:36Z
2021-07-02T00:04:24Z,42.805,6.029,13.3035,4.60077,2470.46,2021-7-02T02:05:39Z
2021-07-02T00:07:27Z,42.805,6.029,13.3029,4.60069,2470.46,2021-7-02T02:08:42Z
2021-07-02T00:10:31Z,42.805,6.029,13.3027,4.60061,2470.413,2021-7-02T02:11:45Z
2021-07-02T00:13:34Z,42.805,6.029,13.3025,4.60078,2470.413,2021-7-02T02:14:49Z
2021-07-02T00:16:37Z,42.805,6.029,13.3022,4.60045,2470.437,2021-7-02T02:17:52Z
2021-07-02T00:19:40Z,42.805,6.029,13.3026,4.60064,2470.437,2021-7-02T02:20:55Z
2021-07-02T00:22:43Z,42.805,6.029,13.3023,4.60069,2470.474,2021-7-02T02:23:58Z
2021-07-02T00:25:46Z,42.805,6.029,13.3015,4.60065,2470.45,2021-7-02T02:27:01Z
2021-07-02T00:28:49Z,42.805,6.029,13.3031,4.60063,2470.474,2021-7-02T02:30:04Z
2021-07-02T00:31:52Z,42.805,6.029,13.3044,4.60069,2470.45,2021-7-02T02:33:07Z
2021-07-02T00:34:55Z,42.805,6.029,13.3030,4.60056,2470.413,2021-7-02T02:36:10Z
2021-07-02T00:37:59Z,42.805,6.029,13.3035,4.60072,2470.427,2021-7-02T02:39:13Z
2021-07-02T00:41:02Z,42.805,6.029,13.3033,4.60077,2470.497,2021-7-02T02:42:17Z
2021-07-02T00:44:05Z,42.805,6.029,13.3019,4.60069,2470.45,2021-7-02T02:45:20Z
2021-07-02T00:47:08Z,42.805,6.029,13.3021,4.60071,2470.45,2021-7-02T02:48:23Z
2021-07-02T00:50:11Z,42.805,6.029,13.3038,4.60062,2470.437,2021-7-02T02:51:26Z
2021-07-02T00:53:14Z,42.805,6.029,13.3035,4.60052,2470.46,2021-7-02T02:54:29Z
2021-07-02T00:56:17Z,42.805,6.029,13.3017,4.60078,2470.474,2021-7-02T02:57:32Z
2021-07-02T00:59:20Z,42.805,6.029,13.3032,4.60059,2470.45,2021-7-02T03:00:35Z
2021-07-02T01:02:23Z,42.805,6.029,13.3037,4.60046,2470.427,2021-7-02T03:03:38Z
2021-07-02T01:05:27Z,42.805,6.029,13.3026,4.60063,2470.427,2021-7-02T03:06:41Z
2021-07-02T01:08:30Z,42.805,6.029,13.3026,4.60086,2470.413,2021-7-02T03:09:45Z
2021-07-02T01:11:33Z,42.805,6.029,13.3032,4.60066,2470.474,2021-7-02T03:12:48Z
2021-07-02T01:14:36Z,42.805,6.029,13.3025,4.60081,2470.45,2021-7-02T03:15:51Z
2021-07-02T01:17:39Z,42.805,6.029,13.3028,4.60066,2470.413,2021-7-02T03:18:54Z
2021-07-02T01:20:42Z,42.805,6.029,13.3024,4.60063,2470.45,2021-7-02T03:21:57Z
2021-07-02T01:23:45Z,42.805,6.029,13.3014,4.60052,2470.437,2021-7-02T03:25:00Z
2021-07-02T01:26:48Z,42.805,6.029,13.3031,4.60067,2470.45,2021-7-02T03:28:03Z
2021-07-02T01:29:52Z,42.805,6.029,13.3031,4.60075,2470.427,2021-7-02T03:31:06Z
2021-07-02T01:32:55Z,42.805,6.029,13.3006,4.60071,2470.45,2021-7-02T03:34:09Z
2021-07-02T01:35:58Z,42.805,6.029,13.3020,4.60058,2470.45,2021-7-02T03:37:13Z
2021-07-02T01:39:01Z,42.805,6.029,13.3031,4.60069,2470.45,2021-7-02T03:40:16Z
2021-07-02T01:42:04Z,42.805,6.029,13.3014,4.60036,2470.437,2021-7-02T03:43:19Z
2021-07-02T01:45:07Z,42.805,6.029,13.3013,4.60072,2470.474,2021-7-02T03:46:22Z
2021-07-02T01:48:10Z,42.805,6.029,13.3044,4.60072,2470.437,2021-7-02T03:49:25Z
2021-07-02T01:51:13Z,42.805,6.029,13.3001,4.60031,2470.45,2021-7-02T03:52:28Z
2021-07-02T01:54:16Z,42.805,6.029,13.3014,4.60064,2470.437,2021-7-02T03:55:31Z
2021-07-02T01:57:20Z,42.805,6.029,13.3026,4.60069,2470.413,2021-7-02T03:58:34Z
2021-07-02T02:00:23Z,42.805,6.029,13.3033,4.60075,2470.45,2021-7-02T04:01:38Z
2021-07-02T02:03:26Z,42.805,6.029,13.3031,4.60061,2470.413,2021-7-02T04:04:41Z
2021-07-02T02:06:29Z,42.805,6.029,13.3028,4.60055,2470.427,2021-7-02T04:07:44Z
2021-07-02T02:09:32Z,42.805,6.029,13.3041,4.60073,2470.437,2021-7-02T04:10:47Z
2021-07-02T02:12:35Z,42.805,6.029,13.3015,4.60079,2470.427,2021-7-02T04:13:50Z
2021-07-02T02:15:38Z,42.805,6.029,13.3014,4.60077,2470.413,2021-7-02T04:16:53Z
2021-07-02T02:18:41Z,42.805,6.029,13.3027,4.60042,2470.427,2021-7-02T04:19:56Z
2021-07-02T02:21:45Z,42.805,6.029,13.3019,4.60077,2470.39,2021-7-02T04:22:59Z
2021-07-02T02:24:48Z,42.805,6.029,13.3034,4.60064,2470.437,2021-7-02T04:26:03Z
2021-07-02T02:27:51Z,42.805,6.029,13.3027,4.60055,2470.45,2021-7-02T04:29:06Z
2021-07-02T02:30:54Z,42.805,6.029,13.3021,4.60069,2470.437,2021-7-02T04:32:09Z
2021-07-02T02:33:57Z,42.805,6.029,13.3016,4.60081,2470.45,2021-7-02T04:35:12Z
2021-07-02T02:37:00Z,42.805,6.029,13.3024,4.60059,2470.427,2021-7-02T04:38:15Z
2021-07-02T02:40:03Z,42.805,6.029,13.3029,4.60064,2470.427,2021-7-02T04:41:18Z
2021-07-02T02:43:06Z,42.805,6.029,13.3023,4.60072,2470.427,2021-7-02T04:44:21Z
2021-07-02T02:46:09Z,42.805,6.029,13.3026,4.60069,2470.437,2021-7-02T04:47:24Z
2021-07-02T02:49:13Z,42.805,6.029,13.3021,4.60064,2470.404,2021-7-02T04:50:27Z
2021-07-02T02:52:16Z,42.805,6.029,13.3015,4.60067,2470.413,2021-7-02T04:53:31Z
2021-07-02T02:55:19Z,42.805,6.029,13.3019,4.60069,2470.413,2021-7-02T04:56:34Z
2021-07-02T02:58:22Z,42.805,6.029,13.3021,4.60069,2470.45,2021-7-02T04:59:37Z
2021-07-02T03:01:25Z,42.805,6.029,13.3031,4.60053,2470.413,2021-7-02T05:02:40Z
2021-07-02T03:04:28Z,42.805,6.029,13.3039,4.60061,2470.427,2021-7-02T05:05:43Z
2021-07-02T03:07:31Z,42.805,6.029,13.3021,4.60082,2470.404,2021-7-02T05:08:46Z
2021-07-02T03:10:34Z,42.805,6.029,13.3039,4.60075,2470.404,2021-7-02T05:11:49Z
2021-07-02T03:13:37Z,42.805,6.029,13.3020,4.60073,2470.427,2021-7-02T05:14:52Z
2021-07-02T03:16:41Z,42.805,6.029,13.3014,4.60062,2470.38,2021-7-02T05:17:55Z
2021-07-02T03:19:44Z,42.805,6.029,13.3015,4.60084,2470.39,2021-7-02T05:20:59Z
2021-07-02T03:22:47Z,42.805,6.029,13.3026,4.60073,2470.38,2021-7-02T05:24:02Z
2021-07-02T03:25:50Z,42.805,6.029,13.3031,4.60075,2470.404,2021-7-02T05:27:05Z
2021-07-02T03:28:53Z,42.805,6.029,13.3025,4.60067,2470.366,2021-7-02T05:30:08Z
2021-07-02T03:31:56Z,42.805,6.029,13.3031,4.60062,2470.427,2021-7-02T05:33:11Z
2021-07-02T03:34:59Z,42.805,6.029,13.3015,4.60062,2470.404,2021-7-02T05:36:14Z
2021-07-02T03:38:02Z,42.805,6.029,13.3031,4.60068,2470.404,2021-7-02T05:39:17Z
2021-07-02T03:41:06Z,42.805,6.029,13.3027,4.60061,2470.366,2021-7-02T05:42:20Z
2021-07-02T03:44:09Z,42.805,6.029,13.3019,4.60076,2470.39,2021-7-02T05:45:24Z
2021-07-02T03:47:12Z,42.805,6.029,13.3029,4.60066,2470.38,2021-7-02T05:48:27Z
2021-07-02T03:50:15Z,42.805,6.029,13.3034,4.60039,2470.427,2021-7-02T05:51:30Z
2021-07-02T03:53:18Z,42.805,6.029,13.3026,4.60064,2470.39,2021-7-02T05:54:33Z
2021-07-02T03:56:21Z,42.805,6.029,13.3032,4.60072,2470.366,2021-7-02T05:57:36Z
2021-07-02T03:59:24Z,42.805,6.029,13.3026,4.60072,2470.404,2021-7-02T06:00:39Z
2021-07-02T04:02:27Z,42.805,6.029,13.3035,4.60064,2470.39,2021-7-02T06:03:42Z
2021-07-02T04:05:30Z,42.805,6.029,13.3022,4.60077,2470.404,2021-7-02T06:06:45Z
2021-07-02T04:08:34Z,42.805,6.029,13.3020,4.60068,2470.39,2021-7-02T06:09:48Z
2021-07-02T04:11:37Z,42.805,6.029,13.3031,4.60067,2470.343,2021-7-02T06:12:52Z
2021-07-02T04:14:40Z,42.805,6.029,13.3039,4.60075,2470.366,2021-7-02T06:15:55Z
2021-07-02T04:17:43Z,42.805,6.029,13.3034,4.60057,2470.404,2021-7-02T06:18:58Z
2021-07-02T04:20:46Z,42.805,6.029,13.3045,4.60053,2470.39,2021-7-02T06:22:01Z
2021-07-02T04:23:49Z,42.805,6.029,13.3014,4.60063,2470.38,2021-7-02T06:25:04Z
2021-07-02T04:26:52Z,42.805,6.029,13.3011,4.60060,2470.38,2021-7-02T06:28:07Z
2021-07-02T04:29:55Z,42.805,6.029,13.3031,4.60062,2470.366,2021-7-02T06:31:10Z
2021-07-02T04:32:59Z,42.805,6.029,13.3032,4.60064,2470.343,2021-7-02T06:34:13Z
2021-07-02T04:36:02Z,42.805,6.029,13.3029,4.60067,2470.394,2021-7-02T06:37:17Z
2021-07-02T04:39:05Z,42.805,6.029,13.3021,4.60057,2470.39,2021-7-02T06:40:20Z
2021-07-02T04:42:08Z,42.805,6.029,13.3033,4.60087,2470.366,2021-7-02T06:43:23Z
2021-07-02T04:45:11Z,42.805,6.029,13.3028,4.60072,2470.343,2021-7-02T06:46:26Z
2021-07-02T04:48:14Z,42.805,6.029,13.3021,4.60068,2470.404,2021-7-02T06:49:29Z
2021-07-02T04:51:17Z,42.805,6.029,13.3004,4.60074,2470.39,2021-7-02T06:52:32Z
2021-07-02T04:54:20Z,42.805,6.029,13.3021,4.60074,2470.366,2021-7-02T06:55:35Z
2021-07-02T04:57:23Z,42.805,6.029,13.3015,4.60051,2470.357,2021-7-02T06:58:38Z
2021-07-02T05:00:27Z,42.805,6.029,13.3035,4.60062,2470.343,2021-7-02T07:01:42Z
2021-07-02T05:03:30Z,42.805,6.029,13.3038,4.60070,2470.357,2021-7-02T07:04:45Z
2021-07-02T05:06:33Z,42.805,6.029,13.3029,4.60086,2470.343,2021-7-02T07:07:48Z
2021-07-02T05:09:36Z,42.805,6.029,13.3003,4.60064,2470.366,2021-7-02T07:10:51Z
2021-07-02T05:12:39Z,42.805,6.029,13.3027,4.60087,2470.366,2021-7-02T07:13:54Z
2021-07-02T05:15:42Z,42.805,6.029,13.3010,4.60064,2470.38,2021-7-02T07:16:57Z
2021-07-02T05:18:45Z,42.805,6.029,13.3029,4.60066,2470.357,2021-7-02T07:20:00Z
2021-07-02T05:21:48Z,42.805,6.029,13.3034,4.60060,2470.366,2021-7-02T07:23:03Z
2021-07-02T05:24:52Z,42.805,6.029,13.3026,4.60067,2470.32,2021-7-02T07:26:06Z
2021-07-02T05:27:55Z,42.805,6.029,13.3021,4.60063,2470.343,2021-7-02T07:29:10Z
2021-07-02T05:30:58Z,42.805,6.029,13.3022,4.60048,2470.357,2021-7-02T07:32:13Z
2021-07-02T05:34:01Z,42.805,6.029,13.3030,4.60062,2470.32,2021-7-02T07:35:16Z
2021-07-02T05:37:04Z,42.805,6.029,13.3028,4.60063,2470.38,2021-7-02T07:38:19Z
2021-07-02T05:40:07Z,42.805,6.029,13.3037,4.60064,2470.334,2021-7-02T07:41:22Z
2021-07-02T05:43:10Z,42.805,6.029,13.3020,4.60069,2470.334,2021-7-02T07:44:25Z
2021-07-02T05:46:13Z,42.805,6.029,13.3029,4.60072,2470.357,2021-7-02T07:47:28Z
2021-07-02T05:49:16Z,42.805,6.029,13.3014,4.60047,2470.357,2021-7-02T07:50:31Z
2021-07-02T05:52:20Z,42.805,6.029,13.3026,4.60063,2470.357,2021-7-02T07:53:34Z
2021-07-02T05:55:23Z,42.805,6.029,13.3029,4.60062,2470.343,2021-7-02T07:56:38Z
2021-07-02T05:58:26Z,42.805,6.029,13.3031,4.60049,2470.357,2021-7-02T07:59:41Z
2021-07-02T06:01:29Z,42.805,6.029,13.3035,4.60043,2470.357,2021-7-02T08:02:44Z
2021-07-02T06:04:32Z,42.805,6.029,13.3022,4.60060,2470.357,2021-7-02T08:05:47Z
2021-07-02T06:07:35Z,42.805,6.029,13.3018,4.60039,2470.357,2021-7-02T08:08:50Z
2021-07-02T06:10:38Z,42.805,6.029,13.3006,4.60044,2470.334,2021-7-02T08:11:53Z
2021-07-02T06:13:41Z,42.805,6.029,13.3011,4.60052,2470.32,2021-7-02T08:14:56Z
2021-07-02T06:16:45Z,42.805,6.029,13.3006,4.60052,2470.357,2021-7-02T08:17:59Z
2021-07-02T06:19:48Z,42.805,6.029,13.3033,4.60059,2470.343,2021-7-02T08:21:03Z
2021-07-02T06:22:51Z,42.805,6.029,13.3025,4.60062,2470.334,2021-7-02T08:24:06Z
2021-07-02T06:25:54Z,42.805,6.029,13.3034,4.60047,2470.357,2021-7-02T08:27:09Z
2021-07-02T06:28:57Z,42.805,6.029,13.3026,4.60059,2470.31,2021-7-02T08:30:12Z
2021-07-02T06:32:00Z,42.805,6.029,13.3022,4.60049,2470.32,2021-7-02T08:33:15Z
2021-07-02T06:35:03Z,42.805,6.029,13.3021,4.60063,2470.297,2021-7-02T08:36:18Z
2021-07-02T06:38:06Z,42.805,6.029,13.3031,4.60057,2470.31,2021-7-02T08:39:21Z
2021-07-02T06:41:09Z,42.805,6.029,13.3033,4.60063,2470.334,2021-7-02T08:42:24Z
2021-07-02T06:44:13Z,42.805,6.029,13.3030,4.60055,2470.334,2021-7-02T08:45:28Z
2021-07-02T06:47:16Z,42.805,6.029,13.3029,4.60050,2470.31,2021-7-02T08:48:31Z
2021-07-02T06:50:19Z,42.805,6.029,13.3021,4.60061,2470.32,2021-7-02T08:51:34Z
2021-07-02T06:53:22Z,42.805,6.029,13.3025,4.60069,2470.32,2021-7-02T08:54:37Z
2021-07-02T06:56:25Z,42.805,6.029,13.3007,4.60054,2470.273,2021-7-02T08:57:40Z
2021-07-02T06:59:28Z,42.805,6.029,13.3000,4.60027,2470.32,2021-7-02T09:00:43Z
2021-07-02T07:02:31Z,42.805,6.029,13.2999,4.60019,2470.32,2021-7-02T09:03:46Z
2021-07-02T07:05:34Z,42.805,6.029,13.3008,4.60046,2470.334,2021-7-02T09:06:49Z
2021-07-02T07:08:38Z,42.805,6.029,13.3012,4.60042,2470.334,2021-7-02T09:09:52Z
2021-07-02T07:11:41Z,42.805,6.029,13.3021,4.60042,2470.334,2021-7-02T09:12:56Z
2021-07-02T07:14:44Z,42.805,6.029,13.3024,4.60059,2470.347,2021-7-02T09:15:59Z
2021-07-02T07:17:47Z,42.805,6.029,13.3023,4.60075,2470.297,2021-7-02T09:19:02Z
2021-07-02T07:20:50Z,42.805,6.029,13.3024,4.60064,2470.297,2021-7-02T09:22:05Z
2021-07-02T07:23:53Z,42.805,6.029,13.3013,4.60060,2470.287,2021-7-02T09:25:08Z
2021-07-02T07:26:56Z,42.805,6.029,13.3024,4.60057,2470.32,2021-7-02T09:28:11Z
2021-07-02T07:29:59Z,42.805,6.029,13.3021,4.60064,2470.273,2021-7-02T09:31:14Z
2021-07-02T07:33:03Z,42.805,6.029,13.3000,4.60047,2470.32,2021-7-02T09:34:17Z
2021-07-02T07:36:06Z,42.805,6.029,13.3016,4.60055,2470.343,2021-7-02T09:37:21Z
2021-07-02T07:39:09Z,42.805,6.029,13.3011,4.60057,2470.287,2021-7-02T09:40:24Z
2021-07-02T07:42:12Z,42.805,6.029,13.3024,4.60062,2470.297,2021-7-02T09:43:27Z
2021-07-02T07:45:15Z,42.805,6.029,13.3010,4.60056,2470.31,2021-7-02T09:46:30Z
2021-07-02T07:48:18Z,42.805,6.029,13.3021,4.60055,2470.334,2021-7-02T09:49:33Z
2021-07-02T07:51:21Z,42.805,6.029,13.3012,4.60058,2470.297,2021-7-02T09:52:36Z
2021-07-02T07:54:24Z,42.805,6.029,13.3014,4.60053,2470.287,2021-7-02T09:55:39Z
2021-07-02T07:57:27Z,42.805,6.029,13.3017,4.60075,2470.334,2021-7-02T09:58:42Z
2021-07-02T08:00:31Z,42.805,6.029,13.3025,4.60063,2470.297,2021-7-02T10:01:45Z
2021-07-02T08:03:34Z,42.805,6.029,13.3021,4.60072,2470.287,2021-7-02T10:04:49Z
2021-07-02T08:06:37Z,42.805,6.029,13.3015,4.60067,2470.297,2021-7-02T10:07:52Z
2021-07-02T08:09:40Z,42.805,6.029,13.3025,4.60051,2470.31,2021-7-02T10:10:55Z
2021-07-02T08:12:43Z,42.805,6.029,13.3009,4.60055,2470.287,2021-7-02T10:13:58Z
2021-07-02T08:15:46Z,42.805,6.029,13.3026,4.60040,2470.31,2021-7-02T10:17:01Z
2021-07-02T08:18:49Z,42.805,6.029,13.3026,4.60049,2470.287,2021-7-02T10:20:04Z
2021-07-02T08:21:52Z,42.805,6.029,13.3007,4.60039,2470.287,2021-7-02T10:23:07Z
2021-07-02T08:24:56Z,42.805,6.029,13.3010,4.60039,2470.297,2021-7-02T10:26:10Z
2021-07-02T08:27:59Z,42.805,6.029,13.3000,4.60038,2470.297,2021-7-02T10:29:14Z
2021-07-02T08:31:02Z,42.805,6.029,13.3009,4.60049,2470.334,2021-7-02T10:32:17Z
2021-07-02T08:34:05Z,42.805,6.029,13.3019,4.60044,2470.31,2021-7-02T10:35:20Z
2021-07-02T08:37:08Z,42.805,6.029,13.3004,4.60047,2470.32,2021-7-02T10:38:23Z
2021-07-02T08:40:11Z,42.805,6.029,13.3012,4.60044,2470.32,2021-7-02T10:41:26Z
2021-07-02T08:43:14Z,42.805,6.029,13.3013,4.60045,2470.31,2021-7-02T10:44:29Z
2021-07-02T08:46:17Z,42.805,6.029,13.3015,4.60019,2470.297,2021-7-02T10:47:32Z
2021-07-02T08:49:21Z,42.805,6.029,13.3018,4.60056,2470.334,2021-7-02T10:50:36Z
2021-07-02T08:52:24Z,42.805,6.029,13.3019,4.60040,2470.334,2021-7-02T10:53:39Z
2021-07-02T08:55:27Z,42.805,6.029,13.3000,4.60031,2470.31,2021-7-02T10:56:42Z
2021-07-02T08:58:30Z,42.805,6.029,13.3017,4.60047,2470.343,2021-7-02T10:59:45Z
2021-07-02T09:01:33Z,42.805,6.029,13.3012,4.60044,2470.31,2021-7-02T11:02:48Z
2021-07-02T09:04:36Z,42.805,6.029,13.3015,4.60044,2470.297,2021-7-02T11:05:51Z
2021-07-02T09:07:39Z,42.805,6.029,13.3016,4.60064,2470.31,2021-7-02T11:08:54Z
2021-07-02T09:10:42Z,42.805,6.029,13.3014,4.60064,2470.287,2021-7-02T11:11:57Z
2021-07-02T09:13:46Z,42.805,6.029,13.3003,4.60042,2470.31,2021-7-02T11:15:00Z
2021-07-02T09:16:49Z,42.805,6.029,13.3005,4.60036,2470.32,2021-7-02T11:18:04Z
2021-07-02T09:19:52Z,42.805,6.029,13.3001,4.60046,2470.31,2021-7-02T11:21:07Z
2021-07-02T09:22:55Z,42.805,6.029,13.3009,4.60032,2470.31,2021-7-02T11:24:10Z
2021-07-02T09:25:58Z,42.805,6.029,13.3019,4.60051,2470.334,2021-7-02T11:27:13Z
2021-07-02T09:29:01Z,42.805,6.029,13.3022,4.60070,2470.32,2021-7-02T11:30:16Z
2021-07-02T09:32:04Z,42.805,6.029,13.3021,4.60042,2470.31,2021-7-02T11:33:19Z
2021-07-02T09:35:07Z,42.805,6.029,13.3023,4.60051,2470.31,2021-7-02T11:36:22Z
2021-07-02T09:38:11Z,42.805,6.029,13.3011,4.60070,2470.32,2021-7-02T11:39:25Z
2021-07-02T09:41:14Z,42.805,6.029,13.3029,4.60066,2470.32,2021-7-02T11:42:29Z
2021-07-02T09:44:17Z,42.805,6.029,13.3029,4.60063,2470.31,2021-7-02T11:45:32Z
2021-07-02T09:47:20Z,42.805,6.029,13.3033,4.60052,2470.357,2021-7-02T11:48:35Z
2021-07-02T09:50:23Z,42.805,6.029,13.3026,4.60067,2470.334,2021-7-02T11:51:38Z
2021-07-02T09:53:26Z,42.805,6.029,13.3019,4.60062,2470.297,2021-7-02T11:54:41Z
2021-07-02T09:56:29Z,42.805,6.029,13.3032,4.60061,2470.32,2021-7-02T11:57:44Z
2021-07-02T09:59:32Z,42.805,6.029,13.3010,4.60064,2470.297,2021-7-02T12:00:47Z
2021-07-02T10:02:36Z,42.805,6.029,13.3019,4.60055,2470.357,2021-7-02T12:03:50Z
2021-07-02T10:05:39Z,42.805,6.029,13.3008,4.60040,2470.297,2021-7-02T12:06:54Z
2021-07-02T10:08:42Z,42.805,6.029,13.3004,4.60028,2470.334,2021-7-02T12:09:57Z
2021-07-02T10:11:45Z,42.805,6.029,13.2998,4.60025,2470.31,2021-7-02T12:13:00Z
2021-07-02T10:14:48Z,42.805,6.029,13.3000,4.60013,2470.343,2021-7-02T12:16:03Z
2021-07-02T10:17:51Z,42.805,6.029,13.3006,4.60046,2470.32,2021-7-02T12:19:06Z
2021-07-02T10:20:54Z,42.805,6.029,13.3005,4.60026,2470.297,2021-7-02T12:22:09Z
2021-07-02T10:23:57Z,42.805,6.029,13.3013,4.60054,2470.357,2021-7-02T12:25:12Z
2021-07-02T10:27:01Z,42.805,6.029,13.2998,4.60041,2470.297,2021-7-02T12:28:15Z
2021-07-02T10:30:04Z,42.805,6.029,13.3009,4.60062,2470.357,2021-7-02T12:31:19Z
2021-07-02T10:33:07Z,42.805,6.029,13.3033,4.60052,2470.32,2021-7-02T12:34:22Z
2021-07-02T10:36:10Z,42.805,6.029,13.3025,4.60064,2470.334,2021-7-02T12:37:25Z
2021-07-02T10:39:13Z,42.805,6.029,13.3033,4.60084,2470.31,2021-7-02T12:40:28Z
2021-07-02T10:42:16Z,42.805,6.029,13.3009,4.60084,2470.343,2021-7-02T12:43:31Z
2021-07-02T10:45:19Z,42.805,6.029,13.3026,4.60056,2470.32,2021-7-02T12:46:34Z
2021-07-02T10:48:22Z,42.805,6.029,13.3032,4.60057,2470.343,2021-7-02T12:49:37Z
2021-07-02T10:51:26Z,42.805,6.029,13.3026,4.60067,2470.32,2021-7-02T12:52:40Z
2021-07-02T10:54:29Z,42.805,6.029,13.3034,4.60053,2470.334,2021-7-02T12:55:44Z
2021-07-02T10:57:32Z,42.805,6.029,13.3019,4.60062,2470.38,2021-7-02T12:58:47Z
2021-07-02T11:00:35Z,42.805,6.029,13.3041,4.60131,2470.334,2021-7-02T13:01:50Z
2021-07-02T11:03:38Z,42.805,6.029,13.3039,4.60084,2470.343,2021-7-02T13:04:53Z
2021-07-02T11:06:41Z,42.805,6.029,13.3024,4.60101,2470.343,2021-7-02T13:07:56Z
2021-07-02T11:09:44Z,42.805,6.029,13.3021,4.60105,2470.297,2021-7-02T13:10:59Z
2021-07-02T11:12:47Z,42.805,6.029,13.3046,4.60107,2470.357,2021-7-02T13:14:02Z
2021-07-02T11:15:50Z,42.805,6.029,13.3042,4.60080,2470.38,2021-7-02T13:17:05Z
2021-07-02T11:18:54Z,42.805,6.029,13.3024,4.60085,2470.357,2021-7-02T13:20:08Z
2021-07-02T11:21:57Z,42.805,6.029,13.3021,4.60075,2470.297,2021-7-02T13:23:12Z
2021-07-02T11:25:00Z,42.805,6.029,13.3022,4.60046,2470.343,2021-7-02T13:26:15Z
2021-07-02T11:28:03Z,42.805,6.029,13.3027,4.60064,2470.334,2021-7-02T13:29:18Z
2021-07-02T11:31:06Z,42.805,6.029,13.3031,4.60078,2470.343,2021-7-02T13:32:21Z
2021-07-02T11:34:09Z,42.805,6.029,13.3041,4.60074,2470.343,2021-7-02T13:35:24Z
2021-07-02T11:37:12Z,42.805,6.029,13.3049,4.60062,2470.32,2021-7-02T13:38:27Z
2021-07-02T11:40:15Z,42.805,6.029,13.3041,4.60031,2470.343,2021-7-02T13:41:30Z
2021-07-02T11:43:19Z,42.805,6.029,13.3045,4.60056,2470.366,2021-7-02T13:44:33Z
2021-07-02T11:46:22Z,42.805,6.029,13.3014,4.60056,2470.343,2021-7-02T13:47:37Z
2021-07-02T11:49:25Z,42.805,6.029,13.3026,4.60084,2470.38,2021-7-02T13:50:40Z
2021-07-02T11:52:28Z,42.805,6.029,13.3045,4.60075,2470.357,2021-7-02T13:53:43Z
2021-07-02T11:55:31Z,42.805,6.029,13.3047,4.60064,2470.357,2021-7-02T13:56:46Z
2021-07-02T11:58:34Z,42.805,6.029,13.3038,4.60077,2470.38,2021-7-02T13:59:49Z
2021-07-02T12:01:37Z,42.805,6.029,13.3023,4.60074,2470.357,2021-7-02T14:02:52Z
2021-07-02T12:04:40Z,42.805,6.029,13.3015,4.60023,2470.366,2021-7-02T14:05:55Z
2021-07-02T12:07:44Z,42.805,6.029,13.3043,4.60104,2470.366,2021-7-02T14:08:58Z
2021-07-02T12:10:47Z,42.805,6.029,13.3056,4.60127,2470.357,2021-7-02T14:12:02Z
2021-07-02T12:13:50Z,42.805,6.029,13.3029,4.60069,2470.366,2021-7-02T14:15:05Z
2021-07-02T12:16:53Z,42.805,6.029,13.3054,4.60082,2470.343,2021-7-02T14:18:08Z
2021-07-02T12:19:56Z,42.805,6.029,13.3051,4.60054,2470.32,2021-7-02T14:21:11Z
2021-07-02T12:22:59Z,42.805,6.029,13.3029,4.60044,2470.343,2021-7-02T14:24:14Z
2021-07-02T12:26:02Z,42.805,6.029,13.3010,4.60074,2470.366,2021-7-02T14:27:17Z
2021-07-02T12:29:05Z,42.805,6.029,13.3036,4.60075,2470.38,2021-7-02T14:30:20Z
2021-07-02T12:32:09Z,42.805,6.029,13.3042,4.60079,2470.32,2021-7-02T14:33:23Z
2021-07-02T12:35:12Z,42.805,6.029,13.3030,4.60046,2470.366,2021-7-02T14:36:27Z
2021-07-02T12:38:15Z,42.805,6.029,13.3036,4.60024,2470.38,2021-7-02T14:39:30Z
2021-07-02T12:41:18Z,42.805,6.029,13.3024,4.60057,2470.343,2021-7-02T14:42:33Z
2021-07-02T12:44:21Z,42.805,6.029,13.3036,4.60068,2470.343,2021-7-02T14:45:36Z
2021-07-02T12:47:24Z,42.805,6.029,13.3026,4.60060,2470.343,2021-7-02T14:48:39Z
2021-07-02T12:50:27Z,42.805,6.029,13.3021,4.60070,2470.357,2021-7-02T14:51:42Z
2021-07-02T12:53:30Z,42.805,6.029,13.3039,4.60062,2470.343,2021-7-02T14:54:45Z
2021-07-02T12:56:34Z,42.805,6.029,13.3029,4.60019,2470.366,2021-7-02T14:57:48Z
2021-07-02T12:59:37Z,42.805,6.029,13.3033,4.60025,2470.366,2021-7-02T15:00:52Z
2021-07-02T13:02:40Z,42.805,6.029,13.3030,4.60067,2470.38,2021-7-02T15:03:55Z
2021-07-02T13:05:43Z,42.805,6.029,13.3012,4.60050,2470.38,2021-7-02T15:06:58Z
2021-07-02T13:08:46Z,42.805,6.029,13.3019,4.60075,2470.39,2021-7-02T15:10:01Z
2021-07-02T13:11:49Z,42.805,6.029,13.3034,4.60098,2470.366,2021-7-02T15:13:04Z
2021-07-02T13:14:52Z,42.805,6.029,13.3065,4.60065,2470.366,2021-7-02T15:16:07Z
2021-07-02T13:17:55Z,42.805,6.029,13.3026,4.60077,2470.38,2021-7-02T15:19:10Z
2021-07-02T13:20:59Z,42.805,6.029,13.3055,4.60057,2470.404,2021-7-02T15:22:13Z
2021-07-02T13:24:02Z,42.805,6.029,13.3047,4.60069,2470.38,2021-7-02T15:25:17Z
2021-07-02T13:27:05Z,42.805,6.029,13.3050,4.60072,2470.404,2021-7-02T15:28:20Z
2021-07-02T13:30:08Z,42.805,6.029,13.3035,4.60074,2470.343,2021-7-02T15:31:23Z
2021-07-02T13:33:11Z,42.805,6.029,13.3056,4.60089,2470.38,2021-7-02T15:34:26Z
2021-07-02T13:36:14Z,42.805,6.029,13.3036,4.60069,2470.38,2021-7-02T15:37:29Z
2021-07-02T13:39:17Z,42.805,6.029,13.3029,4.60074,2470.38,2021-7-02T15:40:32Z
2021-07-02T13:42:20Z,42.805,6.029,13.3029,4.60040,2470.366,2021-7-02T15:43:35Z
2021-07-02T13:45:24Z,42.805,6.029,13.3008,4.60033,2470.366,2021-7-02T15:46:38Z
2021-07-02T13:48:27Z,42.805,6.029,13.3020,4.60072,2470.404,2021-7-02T15:49:42Z
2021-07-02T13:51:30Z,42.805,6.029,13.3029,4.60074,2470.343,2021-7-02T15:52:45Z
2021-07-02T13:54:33Z,42.805,6.029,13.3020,4.60086,2470.404,2021-7-02T15:55:48Z
2021-07-02T13:57:36Z,42.805,6.029,13.3039,4.60035,2470.366,2021-7-02T15:58:51Z
2021-07-02T14:00:39Z,42.805,6.029,13.3036,4.60084,2470.366,2021-7-02T16:01:54Z
2021-07-02T14:03:42Z,42.805,6.029,13.3043,4.60090,2470.39,2021-7-02T16:04:57Z
2021-07-02T14:06:45Z,42.805,6.029,13.3041,4.60089,2470.38,2021-7-02T16:08:00Z
2021-07-02T14:09:49Z,42.805,6.029,13.3052,4.60043,2470.38,2021-7-02T16:11:03Z
2021-07-02T14:12:52Z,42.805,6.029,13.3048,4.60058,2470.366,2021-7-02T16:14:07Z
2021-07-02T14:15:55Z,42.805,6.029,13.3030,4.60080,2470.366,2021-7-02T16:17:10Z
2021-07-02T14:18:58Z,42.805,6.029,13.3032,4.60061,2470.404,2021-7-02T16:20:13Z
2021-07-02T14:22:01Z,42.805,6.029,13.3048,4.60098,2470.343,2021-7-02T16:23:16Z
2021-07-02T14:25:04Z,42.805,6.029,13.3045,4.60067,2470.357,2021-7-02T16:26:19Z
2021-07-02T14:28:07Z,42.805,6.029,13.3051,4.60064,2470.404,2021-7-02T16:29:22Z
2021-07-02T14:31:10Z,42.805,6.029,13.3028,4.60087,2470.404,2021-7-02T16:32:25Z
2021-07-02T14:34:13Z,42.805,6.029,13.3038,4.60080,2470.38,2021-7-02T16:35:28Z
2021-07-02T14:37:17Z,42.805,6.029,13.3039,4.60072,2470.357,2021-7-02T16:38:32Z
2021-07-02T14:40:20Z,42.805,6.029,13.3038,4.60099,2470.366,2021-7-02T16:41:35Z
2021-07-02T14:43:23Z,42.805,6.029,13.3054,4.60063,2470.357,2021-7-02T16:44:38Z
2021-07-02T14:46:26Z,42.805,6.029,13.3034,4.60052,2470.343,2021-7-02T16:47:41Z
2021-07-02T14:49:29Z,42.805,6.029,13.3027,4.60056,2470.38,2021-7-02T16:50:44Z
2021-07-02T14:52:32Z,42.805,6.029,13.3029,4.60072,2470.32,2021-7-02T16:53:47Z
2021-07-02T14:55:35Z,42.805,6.029,13.3045,4.60070,2470.343,2021-7-02T16:56:50Z
2021-07-02T14:58:39Z,42.805,6.029,13.3046,4.60087,2470.38,2021-7-02T16:59:53Z
2021-07-02T15:01:42Z,42.805,6.029,13.3034,4.60072,2470.343,2021-7-02T17:02:57Z
2021-07-02T15:04:45Z,42.805,6.029,13.3020,4.60106,2470.38,2021-7-02T17:06:00Z
2021-07-02T15:07:48Z,42.805,6.029,13.3033,4.60041,2470.343,2021-7-02T17:09:03Z
2021-07-02T15:10:51Z,42.805,6.029,13.3054,4.60069,2470.334,2021-7-02T17:12:06Z
2021-07-02T15:13:54Z,42.805,6.029,13.3047,4.60081,2470.343,2021-7-02T17:15:09Z